[[{"header":{"parameterUnit":"m.s-1","parameterCategory":1,"la1":30.2991,"la2":30.254,"lo1":-89.0895,"lo2":-89.0444,"dy":0.0017,"dx":0.0017,"nx":28,"ny":28,"refTime":"2024-06-03T03:00:00:Z","depth":0,"parameterNumber":2,"parameterNumberName":"U-component_of_WINDS"},"data":[0,0,0,0,0,0,0,0,0,0,0,0,0,0,0,0,0,0,0,0,0,0,0,0,0,0,0,0,0,0,0,0,0,0,0,0,0,0,0,0,0,0,0,0,0,0,0,0,0,0,0,0,0,0,0,0,0,0,-0.2001,-0.2001,0,-0.1928,-0.1927,-0.1926,-0.1891,-0.1891,-0.1891,-0.1891,-0.1815,-0.1813,-0.1811,0,0,0,0,0,0,0,0,0,0,0,0,0,-0.2111,-0.2109,-0.2002,-0.2001,-0.2,-0.1928,-0.1927,-0.1926,-0.1891,-0.1891,-0.1891,-0.1891,-0.1816,-0.1814,-0.1811,0,0,0,0,0,0,0,0,0,0,0,0,0,-0.2053,-0.2108,-0.2002,-0.1974,-0.197,-0.1928,-0.1927,-0.1926,-0.1891,-0.1891,-0.1891,-0.1892,-0.1817,-0.1814,-0.1811,-0.1791,0,0,-0.1801,-0.18,0,0,0,0,0,0,0,0,-0.2056,-0.2049,-0.1979,-0.1976,-0.1972,-0.1919,-0.1938,-0.1881,-0.1891,-0.1921,-0.1891,-0.1892,-0.185,-0.1844,-0.183,-0.1787,-0.1784,-0.1801,-0.1799,-0.1798,-0.1797,0,0,0,0,0,0,0,-0.206,-0.2052,-0.1972,-0.1978,-0.1974,-0.1965,-0.1956,-0.1927,-0.1886,-0.1919,-0.1916,-0.1908,-0.1848,-0.1833,-0.1828,-0.1783,-0.1801,-0.1799,-0.1797,-0.1795,-0.172,-0.172,0,0,0,0,0,0,-0.2069,-0.2055,-0.1975,-0.197,-0.2015,-0.1963,-0.1953,-0.1936,-0.1886,-0.1879,-0.1908,-0.1907,-0.1838,-0.1832,-0.1825,-0.1798,-0.1798,-0.1795,-0.1793,-0.172,-0.172,-0.172,0,0,0,0,0,0,-0.2071,-0.2062,-0.1978,-0.2012,-0.2001,-0.1961,-0.1941,-0.1934,-0.192,-0.1878,-0.1871,-0.19,-0.1838,-0.183,-0.18,-0.1795,-0.1794,-0.1791,-0.172,-0.172,-0.172,-0.1745,0,0,0,0,0,0,-0.2075,-0.2063,-0.2055,-0.2012,-0.1999,-0.1954,-0.1941,-0.1933,-0.1914,-0.1912,-0.1869,-0.1862,-0.1838,-0.1804,-0.1797,-0.1791,-0.1788,-0.172,-0.172,-0.172,-0.1744,-0.1745,-0.1746,0,0,0,0,0,-0.2079,-0.2065,-0.2055,-0.2046,-0.1988,-0.1954,-0.1946,-0.1918,-0.1914,-0.1906,-0.1879,-0.1863,-0.1797,-0.1802,-0.1793,-0.1786,-0.172,-0.172,-0.172,-0.1743,-0.1745,-0.1746,0,0,0,0,0,0,-0.2108,-0.2059,-0.2047,-0.2019,-0.1991,-0.1948,-0.1936,-0.1921,-0.1893,-0.1891,-0.1858,-0.1849,-0.1822,-0.1801,-0.1807,-0.1764,-0.1757,-0.1755,-0.1778,-0.178,-0.1781,-0.1786,-0.1786,0,0,0,0,0,-0.2112,-0.2088,-0.2046,-0.2025,-0.2012,-0.1977,-0.196,-0.1942,-0.1911,-0.1898,-0.1869,-0.184,-0.1812,-0.1795,-0.1767,-0.1741,-0.1731,-0.1732,-0.1733,-0.1734,-0.1733,-0.1717,-0.1717,-0.1718,-0.1718,-0.1718,0,0,-0.2118,-0.2088,-0.2075,-0.203,-0.2006,-0.1982,-0.1967,-0.1942,-0.1923,-0.1894,-0.1864,-0.1842,-0.1807,-0.1779,-0.1765,-0.1761,-0.173,-0.1734,-0.1735,-0.1733,-0.1717,-0.1717,-0.1716,-0.1718,-0.1718,-0.1718,0,0,-0.2118,-0.2093,-0.2073,-0.2049,-0.2013,-0.1989,-0.1985,-0.1944,-0.1928,-0.1898,-0.1876,-0.1853,-0.1806,-0.1782,-0.1764,-0.1754,-0.1739,-0.1746,-0.1752,-0.1738,-0.1737,-0.1737,-0.1734,-0.1733,-0.1745,-0.1745,-0.1745,0,-0.213,-0.2093,-0.2064,-0.2041,-0.2022,-0.1995,-0.1974,-0.1952,-0.1909,-0.1896,-0.1892,-0.1833,-0.1807,-0.1773,-0.1771,-0.1757,-0.175,-0.1751,-0.174,-0.1739,-0.1739,-0.1735,-0.1733,-0.1746,-0.1746,-0.1746,-0.1746,0,-0.211,-0.2085,-0.2073,-0.2032,-0.2012,-0.199,-0.1958,-0.194,-0.1923,-0.1901,-0.187,-0.1838,-0.1804,-0.1794,-0.1777,-0.1758,-0.1756,-0.1746,-0.1739,-0.174,-0.1736,-0.1734,-0.1748,-0.1747,-0.1747,-0.1747,0,0,-0.2126,-0.207,-0.2066,-0.2047,-0.2005,-0.1985,-0.1961,-0.1928,-0.1914,-0.1885,-0.1864,-0.1826,-0.1816,-0.1795,-0.1776,-0.1763,-0.1757,-0.1754,-0.1753,-0.1756,-0.1733,-0.174,-0.1739,-0.1747,-0.1746,-0.1746,-0.1736,0,-0.2119,-0.2077,-0.205,-0.2018,-0.1994,-0.1969,-0.1949,-0.1921,-0.1899,-0.1875,-0.1851,-0.1824,-0.1814,-0.1801,-0.1787,-0.1761,-0.1752,-0.1761,-0.1727,-0.1726,-0.1736,-0.1737,-0.1745,-0.1737,-0.1734,-0.1734,-0.1734,0,-0.2106,-0.2078,-0.2044,-0.2004,-0.1993,-0.1976,-0.1943,-0.1921,-0.1888,-0.1873,-0.1851,-0.1831,-0.1805,-0.18,-0.1764,-0.1771,-0.1755,-0.174,-0.1739,-0.1734,-0.173,-0.1732,-0.1734,-0.1732,-0.1731,-0.1731,-0.1731,0,-0.212,-0.2074,-0.2047,-0.2032,-0.1986,-0.1974,-0.1954,-0.1922,-0.1904,-0.1875,-0.1863,-0.1831,-0.1814,-0.179,-0.1762,-0.1761,-0.1729,-0.1722,-0.1715,-0.1716,-0.1709,-0.171,-0.1708,-0.17,-0.17,-0.17,-0.17,0,-0.2116,-0.2096,-0.2053,-0.2037,-0.2014,-0.1984,-0.1961,-0.1939,-0.1911,-0.189,-0.1866,-0.1846,-0.1811,-0.1787,-0.1765,-0.1738,-0.173,-0.1717,-0.1712,-0.1719,-0.1721,-0.1708,-0.1708,-0.17,-0.17,-0.17,-0.17,0,-0.2128,-0.2099,-0.2068,-0.2027,-0.2016,-0.2001,-0.1966,-0.1949,-0.1926,-0.1899,-0.1891,-0.1855,-0.1826,-0.1796,-0.1756,-0.1741,-0.1715,-0.1707,-0.1726,-0.1722,-0.1718,-0.1718,-0.1707,-0.1704,-0.1699,-0.1699,-0.1699,0,-0.2126,-0.211,-0.2068,-0.2052,-0.2033,-0.2008,-0.1989,-0.1959,-0.194,-0.1902,-0.189,-0.1859,-0.1832,-0.1786,-0.1756,-0.1726,-0.1717,-0.1715,-0.1712,-0.172,-0.1716,-0.1718,-0.1716,-0.1716,-0.1716,-0.1716,-0.1717,0,-0.2127,-0.2114,-0.2088,-0.2057,-0.2035,-0.2009,-0.1983,-0.1971,-0.1936,-0.1916,-0.1886,-0.1865,-0.1825,-0.1794,-0.176,-0.1739,-0.1722,-0.1718,-0.1715,-0.1722,-0.1733,-0.1727,-0.1728,-0.1718,-0.1718,-0.1718,-0.1718,-0.1718,-0.2132,-0.2117,-0.2084,-0.2056,-0.2033,-0.2009,-0.1991,-0.1966,-0.194,-0.1905,-0.1889,-0.1859,-0.1827,-0.1779,-0.1758,-0.1734,-0.1729,-0.1725,-0.1724,-0.1723,-0.1725,-0.1738,-0.1728,-0.1728,-0.1728,-0.1728,-0.1727,0,-0.2131,-0.2109,-0.2084,-0.2047,-0.2025,-0.2012,-0.1981,-0.1964,-0.1938,-0.1909,-0.1884,-0.1849,-0.1819,-0.1787,-0.1755,-0.1742,-0.1733,-0.1734,-0.1735,-0.173,-0.1731,-0.1737,-0.1742,-0.1742,-0.1742,-0.1742,-0.1742,-0.1742,-0.2128,-0.2102,-0.2084,-0.2046,-0.2024,-0.1994,-0.1978,-0.1955,-0.1933,-0.1895,-0.187,-0.185,-0.182,-0.1786,-0.1758,-0.1749,-0.1738,-0.1742,-0.1731,-0.1731,-0.173,-0.1729,-0.1735,-0.174,-0.174,-0.1732,-0.1732,-0.1732]},{"header":{"parameterUnit":"m.s-1","parameterCategory":1,"la1":30.2991,"la2":30.254,"lo1":-89.0895,"lo2":-89.0444,"dy":0.0017,"dx":0.0017,"nx":28,"ny":28,"refTime":"2024-06-03T03:00:00:Z","depth":0,"parameterNumber":3,"parameterNumberName":"V-component_of_WINDS"},"data":[0,0,0,0,0,0,0,0,0,0,0,0,0,0,0,0,0,0,0,0,0,0,0,0,0,0,0,0,0,0,0,0,0,0,0,0,0,0,0,0,0,0,0,0,0,0,0,0,0,0,0,0,0,0,0,0,0,0,3.1922,3.1922,0,3.1954,3.1954,3.1954,3.1919,3.1918,3.1917,3.1915,3.1945,3.1947,3.1949,0,0,0,0,0,0,0,0,0,0,0,0,0,3.1827,3.1829,3.1922,3.1922,3.1923,3.1954,3.1954,3.1954,3.1919,3.1918,3.1916,3.1915,3.1944,3.1947,3.1949,0,0,0,0,0,0,0,0,0,0,0,0,0,3.1864,3.1829,3.1922,3.1909,3.1908,3.1953,3.1954,3.1954,3.192,3.1918,3.1916,3.1914,3.1943,3.1946,3.1949,3.2008,0,0,3.1959,3.196,0,0,0,0,0,0,0,0,3.1862,3.1868,3.191,3.191,3.1909,3.193,3.1931,3.1972,3.192,3.1915,3.1915,3.1913,3.1942,3.1945,3.1955,3.2009,3.2011,3.1959,3.1961,3.1962,3.1963,0,0,0,0,0,0,0,3.186,3.1866,3.1934,3.1911,3.191,3.19,3.1903,3.1939,3.1939,3.1915,3.1913,3.1917,3.1941,3.1952,3.1955,3.2011,3.1959,3.1962,3.1963,3.1965,3.2114,3.2116,0,0,0,0,0,0,3.1859,3.1864,3.1933,3.1935,3.188,3.1904,3.1907,3.1925,3.1939,3.1939,3.1919,3.1916,3.1948,3.1952,3.1956,3.2025,3.1962,3.1965,3.1967,3.2112,3.2115,3.2117,0,0,0,0,0,0,3.1857,3.1865,3.1932,3.1899,3.1907,3.1907,3.1928,3.1927,3.1938,3.1941,3.1941,3.1931,3.1946,3.1952,3.1995,3.2026,3.1966,3.1969,3.211,3.2113,3.2116,3.2165,0,0,0,0,0,0,3.1854,3.1865,3.1888,3.19,3.1909,3.1972,3.193,3.1929,3.1944,3.194,3.1952,3.1952,3.1945,3.1991,3.1998,3.2029,3.1971,3.2107,3.2111,3.2115,3.216,3.2169,3.2177,0,0,0,0,0,3.1851,3.19,3.189,3.1898,3.1938,3.1974,3.1979,3.197,3.1947,3.197,3.1971,3.1952,3.2021,3.1996,3.2004,3.2036,3.2105,3.211,3.2115,3.2157,3.2167,3.2176,0,0,0,0,0,0,3.1891,3.1902,3.189,3.1944,3.1959,3.1968,3.1996,3.1982,3.2003,3.1998,3.1985,3.1988,3.2035,3.2039,3.2011,3.2093,3.2059,3.2066,3.2088,3.2098,3.2106,3.2104,3.1974,0,0,0,0,0,3.1907,3.1936,3.1943,3.199,3.1998,3.1996,3.2011,3.2004,3.2017,3.2023,3.2028,3.2041,3.2066,3.2082,3.2105,3.216,3.2162,3.2186,3.2194,3.2201,3.2207,3.2236,3.2247,3.2133,3.2133,3.2133,0,0,3.1938,3.1947,3.1967,3.1998,3.2008,3.2038,3.2001,3.2034,3.2056,3.2027,3.2069,3.2073,3.2087,3.2137,3.2159,3.2142,3.2239,3.2207,3.2212,3.2215,3.2242,3.2253,3.2262,3.2136,3.2136,3.2135,0,0,3.2011,3.2022,3.2062,3.2073,3.2089,3.2087,3.2097,3.2108,3.211,3.2152,3.2131,3.2155,3.2198,3.2209,3.222,3.2296,3.2279,3.2303,3.2346,3.2375,3.2384,3.2392,3.2418,3.2428,3.2309,3.2309,3.2309,0,3.2049,3.2094,3.2084,3.2119,3.2133,3.2109,3.2149,3.216,3.2182,3.2192,3.2173,3.2226,3.2233,3.2285,3.2304,3.2313,3.2323,3.2302,3.2383,3.2391,3.2398,3.2424,3.2434,3.2312,3.2312,3.2312,3.2311,0,3.2138,3.217,3.22,3.2223,3.224,3.2277,3.2272,3.2291,3.2281,3.2281,3.2323,3.2331,3.2355,3.2367,3.2358,3.2417,3.2406,3.2385,3.2351,3.2412,3.2436,3.2446,3.2317,3.2315,3.2315,3.2314,0,0,3.2239,3.2256,3.2267,3.2277,3.2292,3.2315,3.2351,3.2375,3.2391,3.2406,3.2435,3.2471,3.2452,3.2465,3.2456,3.2481,3.254,3.2457,3.2457,3.2472,3.2606,3.2621,3.2633,3.2529,3.2531,3.2532,3.2604,0,3.2312,3.2375,3.2367,3.2426,3.2454,3.2432,3.2462,3.2474,3.2475,3.2498,3.2497,3.2524,3.2497,3.2504,3.2527,3.2528,3.2567,3.2523,3.2555,3.2556,3.2553,3.2645,3.2662,3.273,3.2614,3.2615,3.2616,0,3.2406,3.2426,3.2489,3.2499,3.2511,3.2539,3.256,3.2582,3.2595,3.2593,3.2607,3.2594,3.2627,3.2593,3.2639,3.2609,3.2621,3.2624,3.2626,3.2629,3.259,3.2651,3.2752,3.2762,3.2631,3.263,3.2629,0,3.2473,3.2515,3.2558,3.2567,3.258,3.26,3.2607,3.2617,3.2632,3.265,3.2659,3.268,3.2692,3.2708,3.2701,3.2676,3.2748,3.2713,3.2747,3.2748,3.2764,3.2763,3.2868,3.2771,3.2771,3.2771,3.2771,0,3.2556,3.2596,3.2589,3.2615,3.2658,3.2647,3.2689,3.2692,3.2702,3.2728,3.2709,3.2733,3.2721,3.2744,3.2738,3.2777,3.2782,3.2782,3.278,3.2784,3.2784,3.2792,3.2787,3.2774,3.2773,3.2773,3.2772,0,3.2639,3.2636,3.2681,3.2689,3.2692,3.2724,3.273,3.2754,3.2753,3.2785,3.2792,3.279,3.2816,3.281,3.2838,3.2834,3.2883,3.2875,3.2879,3.2878,3.2913,3.2909,3.3027,3.3042,3.2935,3.2936,3.2937,0,3.2692,3.2722,3.2734,3.275,3.2758,3.2784,3.2799,3.2789,3.2806,3.2822,3.2844,3.2868,3.2887,3.293,3.293,3.2951,3.2944,3.2983,3.2947,3.295,3.2944,3.2943,3.2945,3.2991,3.2992,3.2993,3.2994,0,3.2788,3.2784,3.2807,3.283,3.2848,3.2865,3.288,3.2894,3.2885,3.2904,3.2931,3.2946,3.2975,3.2999,3.3019,3.3023,3.3007,3.3005,3.3014,3.3019,3.302,3.302,3.29,3.3003,3.3002,3.3001,3.3001,3.3,3.2857,3.2882,3.2894,3.292,3.293,3.2945,3.2968,3.2969,3.2992,3.3015,3.3007,3.3038,3.3048,3.3073,3.308,3.3103,3.3088,3.3101,3.3105,3.3108,3.3113,3.3016,3.3107,3.3106,3.3106,3.3106,3.3106,0,3.2951,3.2958,3.2982,3.3004,3.3024,3.3007,3.3022,3.304,3.3067,3.3079,3.3098,3.3128,3.3151,3.3153,3.3175,3.3193,3.3186,3.3199,3.3198,3.3199,3.3125,3.3115,3.3204,3.3204,3.3204,3.3204,3.3204,3.3204,3.3003,3.3044,3.3043,3.3088,3.3094,3.3124,3.3135,3.3147,3.3156,3.3191,3.3211,3.3212,3.3219,3.3241,3.3261,3.3261,3.327,3.3286,3.3283,3.3214,3.3204,3.3195,3.3185,3.3288,3.3288,3.3355,3.3355,3.3356]}]]